Location: Claremont
(33.9858°S, 18.4575°E)
Time: 14:30:34
(UTC+00:00)

deb Transit VC - Pass Details

Date: 27 September 2021
Orbit: 840 x 909 km, 90.5° (Epoch: 18 October)

Event Time Altitude Azimuth Distance (km) Brightness Sun altitude
Rises 03:55:59 0° 166° (SSE) 3,427 ? -7.6°
Reaches altitude 10° 03:58:39 10° 156° (SSE) 2,486 ? -7.0°
Maximum altitude 04:03:36 32° 93° (E) 1,411 ? -6.0°
Drops below altitude 10° 04:08:32 10° 30° (NNE) 2,476 ? -5.0°
Sets 04:11:09 0° 20° (NNE) 3,411 ? -4.4°
